| time (UTC) | temp C | wind direction | speed KPH | gust KPH | rain 1hr cm | rain 24hr cm | rain mn cm | humidity % | barometer mb |
| 20260905184826 | 30 | 111 | 0.0 | 0.0 | 0.00 | 0.00 | 0.00 | 30 | 1016.8 |
| 20260905184326 | 30 | 107 | 0.0 | 0.0 | 0.00 | 0.00 | 0.00 | 31 | 1016.9 |
| 20260905183827 | 30 | 71 | 0.0 | 0.0 | 0.00 | 0.00 | 0.00 | 30 | 1017.1 |
| 20260905182826 | 29 | 78 | 0.0 | 0.0 | 0.00 | 0.00 | 0.00 | 30 | 1017.2 |
| 20260905182327 | 29 | 87 | 0.0 | 0.0 | 0.00 | 0.00 | 0.00 | 31 | 1017.2 |
| 20260905180822 | 28 | 87 | 0.0 | 0.0 | 0.00 | 0.00 | 0.00 | 34 | 1017.5 |
| 20260905180323 | 28 | 88 | 0.0 | 0.0 | 0.00 | 0.00 | 0.00 | 36 | 1017.6 |
| 20260905175822 | 28 | 88 | 0.0 | 0.0 | 0.00 | 0.00 | 0.00 | 34 | 1017.6 |
| 20260905175326 | 28 | 88 | 0.0 | 0.0 | 0.00 | 0.00 | 0.00 | 35 | 1017.8 |
| 20260905174825 | 28 | 88 | 0.0 | 0.0 | 0.00 | 0.00 | 0.00 | 33 | 1017.9 |
| 20260905174325 | 28 | 88 | 0.0 | 0.0 | 0.00 | 0.00 | 0.00 | 35 | 1017.9 |
| 20260905173825 | 28 | 88 | 0.0 | 0.0 | 0.00 | 0.00 | 0.00 | 32 | 1017.8 |
| 20260905173321 | 28 | 88 | 0.0 | 0.0 | 0.00 | 0.00 | 0.00 | 35 | 1017.8 |
| 20260905172821 | 28 | 86 | 0.0 | 0.0 | 0.00 | 0.00 | 0.00 | 36 | 1017.6 |
| 20260905172321 | 28 | 86 | 0.0 | 0.0 | 0.00 | 0.00 | 0.00 | 37 | 1017.6 |
| 20260905171818 | 28 | 83 | 0.0 | 0.0 | 0.00 | 0.00 | 0.00 | 36 | 1017.8 |
| 20260905171318 | 27 | 74 | 0.0 | 0.0 | 0.00 | 0.00 | 0.00 | 35 | 1017.8 |
| 20260905170820 | 27 | 75 | 0.0 | 0.0 | 0.00 | 0.00 | 0.00 | 36 | 1017.8 |
| 20260905165814 | 27 | 244 | 0.0 | 0.0 | 0.00 | 0.00 | 0.00 | 37 | 1017.6 |
| 20260905165313 | 27 | 244 | 0.0 | 0.0 | 0.00 | 0.00 | 0.00 | 37 | 1017.6 |
| 20260905164810 | 26 | 244 | 0.0 | 0.0 | 0.00 | 0.00 | 0.00 | 37 | 1017.6 |
| 20260905163806 | 26 | 244 | 0.0 | 0.0 | 0.00 | 0.00 | 0.00 | 41 | 1017.8 |
| 20260905162804 | 26 | 246 | 0.0 | 0.0 | 0.00 | 0.00 | 0.00 | 41 | 1017.8 |
| 20260905162301 | 26 | 228 | 0.0 | 0.0 | 0.00 | 0.00 | 0.00 | 41 | 1017.8 |
| 20260905161800 | 25 | 228 | 0.0 | 0.0 | 0.00 | 0.00 | 0.00 | 41 | 1017.8 |
| 20260905161301 | 25 | 227 | 0.0 | 0.0 | 0.00 | 0.00 | 0.00 | 41 | 1017.8 |
| 20260905160801 | 25 | 232 | 0.0 | 0.0 | 0.00 | 0.00 | 0.00 | 41 | 1017.6 |
| 20260905160256 | 25 | 232 | 0.0 | 0.0 | 0.00 | 0.00 | 0.00 | 40 | 1017.6 |
| 20260905155758 | 25 | 232 | 0.0 | 0.0 | 0.00 | 0.00 | 0.00 | 41 | 1017.6 |
| 20260905155256 | 25 | 234 | 0.0 | 0.0 | 0.00 | 0.00 | 0.00 | 42 | 1017.8 |
| 20260905154754 | 25 | 234 | 0.0 | 0.0 | 0.00 | 0.00 | 0.00 | 41 | 1017.8 |
| 20260905154254 | 24 | 233 | 0.0 | 0.0 | 0.00 | 0.00 | 0.00 | 43 | 1017.8 |
| 20260905153754 | 24 | 233 | 0.0 | 0.0 | 0.00 | 0.00 | 0.00 | 43 | 1017.6 |
| 20260905153254 | 23 | 233 | 0.0 | 0.0 | 0.00 | 0.00 | 0.00 | 43 | 1017.8 |
| 20260905152255 | 23 | 233 | 0.0 | 0.0 | 0.00 | 0.00 | 0.00 | 46 | 1017.8 |
| 20260905151254 | 22 | 233 | 0.0 | 0.0 | 0.00 | 0.00 | 0.00 | 47 | 1017.8 |
| 20260905150752 | 22 | 233 | 0.0 | 0.0 | 0.00 | 0.00 | 0.00 | 48 | 1017.8 |
| 20260905145239 | 21 | 233 | 0.0 | 0.0 | 0.00 | 0.00 | 0.00 | 55 | 1017.6 |
| 20260905144734 | 21 | 233 | 0.0 | 0.0 | 0.00 | 0.00 | 0.00 | 56 | 1017.6 |
| 20260905143722 | 20 | 232 | 0.0 | 0.0 | 0.00 | 0.00 | 0.00 | 60 | 1017.8 |
| 20260905143216 | 20 | 232 | 0.0 | 0.0 | 0.00 | 0.00 | 0.00 | 60 | 1017.8 |
| 20260905142205 | 19 | 232 | 0.0 | 0.0 | 0.00 | 0.00 | 0.00 | 62 | 1017.6 |
| 20260905141658 | 18 | 232 | 0.0 | 0.0 | 0.00 | 0.00 | 0.00 | 63 | 1017.5 |
| 20260905141153 | 18 | 232 | 0.0 | 0.0 | 0.00 | 0.00 | 0.00 | 63 | 1017.4 |
| 20260905140140 | 18 | 232 | 0.0 | 0.0 | 0.00 | 0.00 | 0.00 | 65 | 1017.3 |
| 20260905135634 | 17 | 232 | 0.0 | 0.0 | 0.00 | 0.00 | 0.00 | 67 | 1017.3 |
| 20260905134622 | 17 | 228 | 0.0 | 0.0 | 0.00 | 0.00 | 0.00 | 68 | 1017.2 |
| 20260905134115 | 17 | 228 | 0.0 | 0.0 | 0.00 | 0.00 | 0.00 | 68 | 1017.3 |
| 20260905133103 | 17 | 227 | 0.0 | 0.0 | 0.00 | 0.00 | 0.00 | 68 | 1017.2 |
| 20260905132557 | 17 | 228 | 0.0 | 0.0 | 0.00 | 0.00 | 0.00 | 69 | 1017.2 |
| 20260905132052 | 16 | 228 | 0.0 | 0.0 | 0.00 | 0.00 | 0.00 | 68 | 1017.1 |
| 20260905131546 | 16 | 228 | 0.0 | 0.0 | 0.00 | 0.00 | 0.00 | 68 | 1017.1 |
| 20260905131041 | 16 | 227 | 0.0 | 0.0 | 0.00 | 0.00 | 0.00 | 68 | 1017.1 |
| 20260905130535 | 16 | 227 | 0.0 | 0.0 | 0.00 | 0.00 | 0.00 | 68 | 1016.9 |
| 20260905130030 | 16 | 227 | 0.0 | 0.0 | 0.00 | 0.00 | 0.00 | 67 | 1016.8 |
| 20260905125525 | 16 | 227 | 0.0 | 0.0 | 0.00 | 0.00 | 0.00 | 67 | 1016.8 |
| 20260905125017 | 17 | 228 | 0.0 | 0.0 | 0.00 | 0.00 | 0.00 | 67 | 1016.7 |
| 20260905124509 | 17 | 227 | 0.0 | 0.0 | 0.00 | 0.00 | 0.00 | 66 | 1016.7 |
| 20260905124005 | 17 | 227 | 0.0 | 0.0 | 0.00 | 0.00 | 0.00 | 66 | 1016.7 |
| 20260905122954 | 17 | 227 | 0.0 | 0.0 | 0.00 | 0.00 | 0.00 | 65 | 1016.6 |
| 20260905122445 | 17 | 227 | 0.0 | 0.0 | 0.00 | 0.00 | 0.00 | 65 | 1016.6 |
| 20260905121939 | 17 | 227 | 0.0 | 0.0 | 0.00 | 0.00 | 0.00 | 64 | 1016.5 |
| 20260905121434 | 17 | 227 | 0.0 | 0.0 | 0.00 | 0.00 | 0.00 | 64 | 1016.5 |
| 20260905120928 | 17 | 227 | 0.0 | 0.0 | 0.00 | 0.00 | 0.00 | 63 | 1016.5 |
| 20260905120423 | 17 | 227 | 0.0 | 0.0 | 0.00 | 0.00 | 0.00 | 64 | 1016.5 |
| 20260905115916 | 17 | 227 | 0.0 | 0.0 | 0.00 | 0.00 | 0.00 | 63 | 1016.5 |
| 20260905115410 | 17 | 227 | 0.0 | 0.0 | 0.00 | 0.00 | 0.00 | 63 | 1016.5 |
| 20260905114904 | 17 | 227 | 0.0 | 0.0 | 0.00 | 0.00 | 0.00 | 63 | 1016.5 |
| 20260905114358 | 17 | 227 | 0.0 | 0.0 | 0.00 | 0.00 | 0.00 | 63 | 1016.5 |
| 20260905113852 | 17 | 227 | 0.0 | 0.0 | 0.00 | 0.00 | 0.00 | 63 | 1016.5 |
| 20260905113347 | 17 | 227 | 0.0 | 0.0 | 0.00 | 0.00 | 0.00 | 63 | 1016.4 |
| 20260905112840 | 17 | 227 | 0.0 | 0.0 | 0.00 | 0.00 | 0.00 | 63 | 1016.4 |
| 20260905112334 | 17 | 227 | 0.0 | 0.0 | 0.00 | 0.00 | 0.00 | 63 | 1016.4 |
| 20260905111828 | 17 | 227 | 0.0 | 0.0 | 0.00 | 0.00 | 0.00 | 63 | 1016.4 |
| 20260905110817 | 18 | 227 | 0.0 | 0.0 | 0.00 | 0.00 | 0.00 | 63 | 1016.2 |
| 20260905110310 | 18 | 227 | 0.0 | 0.0 | 0.00 | 0.00 | 0.00 | 63 | 1016.4 |
| 20260905105257 | 18 | 227 | 0.0 | 0.0 | 0.00 | 0.00 | 0.00 | 63 | 1016.2 |
| 20260905104752 | 18 | 227 | 0.0 | 0.0 | 0.00 | 0.00 | 0.00 | 62 | 1016.2 |
| 20260905104245 | 18 | 0 | 0.0 | 0.0 | 0.00 | 0.00 | 0.00 | 61 | 1016.1 |
| 20260905103741 | 18 | 227 | 0.0 | 0.0 | 0.00 | 0.00 | 0.00 | 61 | 1016.1 |
| 20260905102738 | 18 | 227 | 0.0 | 0.0 | 0.00 | 0.00 | 0.00 | 59 | 1016.1 |
| 20260905102237 | 18 | 227 | 0.0 | 0.0 | 0.00 | 0.00 | 0.00 | 59 | 1016.1 |
| 20260905101231 | 19 | 227 | 0.0 | 0.0 | 0.00 | 0.00 | 0.00 | 58 | 1016.2 |
| 20260905100729 | 19 | 227 | 0.0 | 0.0 | 0.00 | 0.00 | 0.00 | 58 | 1016.1 |
| 20260905100228 | 19 | 227 | 0.0 | 0.0 | 0.00 | 0.00 | 0.00 | 58 | 1016.1 |
| 20260905095227 | 19 | 227 | 0.0 | 0.0 | 0.00 | 0.00 | 0.00 | 56 | 1016.0 |
| 20260905094726 | 20 | 227 | 0.0 | 0.0 | 0.00 | 0.00 | 0.00 | 55 | 1016.0 |
| 20260905093726 | 20 | 227 | 0.0 | 0.0 | 0.00 | 0.00 | 0.00 | 55 | 1015.9 |
| 20260905092722 | 20 | 227 | 0.0 | 0.0 | 0.00 | 0.00 | 0.00 | 54 | 1015.8 |
| 20260905091721 | 20 | 227 | 0.0 | 0.0 | 0.00 | 0.00 | 0.00 | 54 | 1015.8 |
| 20260905090722 | 20 | 227 | 0.0 | 0.0 | 0.00 | 0.00 | 0.00 | 53 | 1015.9 |
| 20260905090222 | 20 | 227 | 0.0 | 0.0 | 0.00 | 0.00 | 0.00 | 53 | 1015.9 |
| 20260905085721 | 20 | 227 | 0.0 | 0.0 | 0.00 | 0.00 | 0.00 | 52 | 1015.8 |
| 20260905085222 | 20 | 227 | 0.0 | 0.0 | 0.00 | 0.00 | 0.00 | 52 | 1015.7 |
| 20260905084721 | 20 | 227 | 0.0 | 0.0 | 0.00 | 0.00 | 0.00 | 52 | 1015.7 |
| 20260905084219 | 20 | 227 | 0.0 | 0.0 | 0.00 | 0.00 | 0.00 | 52 | 1015.5 |
| 20260905083718 | 20 | 227 | 0.0 | 0.0 | 0.00 | 0.00 | 0.00 | 52 | 1015.4 |
| 20260905083217 | 20 | 227 | 0.0 | 0.0 | 0.00 | 0.00 | 0.00 | 53 | 1015.5 |
| 20260905082717 | 20 | 227 | 0.0 | 0.0 | 0.00 | 0.00 | 0.00 | 52 | 1015.5 |
| 20260905082218 | 20 | 227 | 0.0 | 0.0 | 0.00 | 0.00 | 0.00 | 52 | 1015.5 |
| 20260905081220 | 21 | 227 | 0.0 | 0.0 | 0.00 | 0.00 | 0.00 | 52 | 1015.4 |
| 20260905080220 | 21 | 226 | 0.0 | 0.0 | 0.00 | 0.00 | 0.00 | 52 | 1015.4 |
| 20260905075714 | 21 | 226 | 0.0 | 0.0 | 0.00 | 0.00 | 0.00 | 51 | 1015.5 |
| 20260905075208 | 21 | 226 | 0.0 | 0.0 | 0.00 | 0.00 | 0.00 | 51 | 1015.5 |
| 20260905074701 | 21 | 226 | 0.0 | 0.0 | 0.00 | 0.00 | 0.00 | 51 | 1015.5 |
| 20260905074154 | 21 | 225 | 0.0 | 0.0 | 0.00 | 0.00 | 0.00 | 51 | 1015.7 |
| 20260905073648 | 21 | 225 | 0.0 | 0.0 | 0.00 | 0.00 | 0.00 | 51 | 1015.7 |
| 20260905073143 | 21 | 225 | 0.0 | 0.0 | 0.00 | 0.00 | 0.00 | 50 | 1015.5 |
| 20260905072637 | 21 | 225 | 0.0 | 0.0 | 0.00 | 0.00 | 0.00 | 50 | 1015.5 |
| 20260905072133 | 21 | 225 | 0.0 | 0.0 | 0.00 | 0.00 | 0.00 | 50 | 1015.7 |
| 20260905071626 | 21 | 225 | 0.0 | 0.0 | 0.00 | 0.00 | 0.00 | 50 | 1015.5 |
| 20260905071119 | 21 | 225 | 0.0 | 0.0 | 0.00 | 0.00 | 0.00 | 50 | 1015.5 |
| 20260905070613 | 21 | 225 | 0.0 | 0.0 | 0.00 | 0.00 | 0.00 | 50 | 1015.5 |
| 20260905070108 | 21 | 225 | 0.0 | 0.0 | 0.00 | 0.00 | 0.00 | 49 | 1015.5 |
| 20260905065601 | 22 | 225 | 0.0 | 0.0 | 0.00 | 0.00 | 0.00 | 49 | 1015.5 |
| 20260905065056 | 22 | 225 | 0.0 | 0.0 | 0.00 | 0.00 | 0.00 | 49 | 1015.5 |
| 20260905064549 | 22 | 225 | 0.0 | 0.0 | 0.00 | 0.00 | 0.00 | 49 | 1015.4 |
| 20260905064043 | 22 | 225 | 0.0 | 0.0 | 0.00 | 0.00 | 0.00 | 49 | 1015.4 |
| 20260905063538 | 22 | 224 | 0.0 | 0.0 | 0.00 | 0.00 | 0.00 | 48 | 1015.4 |
| 20260905063031 | 22 | 225 | 0.0 | 0.0 | 0.00 | 0.00 | 0.00 | 48 | 1015.3 |
| 20260905062525 | 22 | 225 | 0.0 | 0.0 | 0.00 | 0.00 | 0.00 | 48 | 1015.3 |
| 20260905062019 | 22 | 225 | 0.0 | 0.0 | 0.00 | 0.00 | 0.00 | 48 | 1015.3 |
| 20260905061514 | 23 | 225 | 0.0 | 0.0 | 0.00 | 0.00 | 0.00 | 47 | 1015.3 |
| 20260905061008 | 23 | 225 | 0.0 | 0.0 | 0.00 | 0.00 | 0.00 | 47 | 1015.3 |
| 20260905060501 | 23 | 225 | 0.0 | 0.0 | 0.00 | 0.00 | 0.00 | 46 | 1015.3 |
| 20260905055956 | 23 | 225 | 0.0 | 0.0 | 0.00 | 0.00 | 0.00 | 46 | 1015.2 |
| 20260905055452 | 23 | 225 | 0.0 | 0.0 | 0.00 | 0.00 | 0.00 | 46 | 1015.2 |
| 20260905054946 | 23 | 225 | 0.0 | 0.0 | 0.00 | 0.00 | 0.00 | 45 | 1015.1 |
| 20260905054438 | 24 | 225 | 0.0 | 0.0 | 0.00 | 0.00 | 0.00 | 44 | 1015.2 |
| 20260905053932 | 24 | 225 | 0.0 | 0.0 | 0.00 | 0.00 | 0.00 | 44 | 1015.2 |
| 20260905053424 | 24 | 225 | 0.0 | 0.0 | 0.00 | 0.00 | 0.00 | 43 | 1015.2 |
| 20260905052919 | 24 | 225 | 0.0 | 0.0 | 0.00 | 0.00 | 0.00 | 42 | 1015.2 |
| 20260905052412 | 25 | 225 | 0.0 | 0.0 | 0.00 | 0.00 | 0.00 | 42 | 1015.2 |
| 20260905051912 | 25 | 225 | 0.0 | 0.0 | 0.00 | 0.00 | 0.00 | 41 | 1015.3 |
| 20260905050908 | 25 | 225 | 0.0 | 0.0 | 0.00 | 0.00 | 0.00 | 40 | 1015.2 |
| 20260905045908 | 25 | 225 | 0.0 | 0.0 | 0.00 | 0.00 | 0.00 | 40 | 1015.2 |
| 20260905045408 | 25 | 225 | 0.0 | 0.0 | 0.00 | 0.00 | 0.00 | 40 | 1015.2 |
| 20260905044907 | 26 | 225 | 0.0 | 0.0 | 0.00 | 0.00 | 0.00 | 39 | 1015.1 |
| 20260905044408 | 26 | 230 | 0.0 | 0.0 | 0.00 | 0.00 | 0.00 | 39 | 1015.0 |
| 20260905043908 | 26 | 230 | 0.0 | 0.0 | 0.00 | 0.00 | 0.00 | 38 | 1015.1 |
| 20260905042909 | 26 | 134 | 0.0 | 0.0 | 0.00 | 0.00 | 0.00 | 38 | 1015.0 |
| 20260905042407 | 26 | 136 | 0.0 | 0.0 | 0.00 | 0.00 | 0.00 | 37 | 1015.0 |
| 20260905041908 | 26 | 132 | 0.0 | 0.0 | 0.00 | 0.00 | 0.00 | 37 | 1014.8 |
| 20260905041408 | 26 | 132 | 0.0 | 3.2 | 0.00 | 0.00 | 0.00 | 37 | 1014.8 |
| 20260905040907 | 26 | 132 | 1.6 | 4.8 | 0.00 | 0.00 | 0.00 | 37 | 1014.8 |
| 20260905040408 | 26 | 132 | 1.6 | 4.8 | 0.00 | 0.00 | 0.00 | 36 | 1014.8 |
| 20260905035908 | 26 | 97 | 0.0 | 1.6 | 0.00 | 0.00 | 0.00 | 36 | 1014.7 |
| 20260905035407 | 26 | 95 | 0.0 | 1.6 | 0.00 | 0.00 | 0.00 | 35 | 1015.0 |
| 20260905034907 | 26 | 90 | 0.0 | 1.6 | 0.00 | 0.00 | 0.00 | 34 | 1015.0 |
| 20260905034407 | 26 | 90 | 0.0 | 0.0 | 0.00 | 0.00 | 0.00 | 34 | 1015.1 |
| 20260905033908 | 26 | 90 | 0.0 | 0.0 | 0.00 | 0.00 | 0.00 | 33 | 1015.0 |
| 20260905032908 | 26 | 90 | 0.0 | 0.0 | 0.00 | 0.00 | 0.00 | 32 | 1015.0 |
| 20260905032407 | 27 | 90 | 0.0 | 0.0 | 0.00 | 0.00 | 0.00 | 32 | 1014.7 |
| 20260905031908 | 27 | 90 | 0.0 | 0.0 | 0.00 | 0.00 | 0.00 | 32 | 1014.7 |
| 20260905031409 | 27 | 90 | 0.0 | 0.0 | 0.00 | 0.00 | 0.00 | 31 | 1014.7 |
| 20260905030905 | 27 | 90 | 0.0 | 0.0 | 0.00 | 0.00 | 0.00 | 31 | 1014.7 |
| 20260905030406 | 27 | 90 | 0.0 | 0.0 | 0.00 | 0.00 | 0.00 | 30 | 1014.7 |
| 20260905025400 | 27 | 90 | 0.0 | 3.2 | 0.00 | 0.00 | 0.00 | 30 | 1014.7 |
| 20260905024853 | 28 | 89 | 0.0 | 3.2 | 0.00 | 0.00 | 0.00 | 30 | 1014.7 |
| 20260905024346 | 28 | 89 | 0.0 | 3.2 | 0.00 | 0.00 | 0.00 | 29 | 1014.6 |
| 20260905023841 | 28 | 89 | 0.0 | 6.4 | 0.00 | 0.00 | 0.00 | 29 | 1014.5 |
| 20260905023335 | 28 | 86 | 0.0 | 6.4 | 0.00 | 0.00 | 0.00 | 29 | 1014.4 |
| 20260905022828 | 28 | 76 | 0.0 | 0.0 | 0.00 | 0.00 | 0.00 | 28 | 1014.5 |
| 20260905022323 | 28 | 74 | 0.0 | 0.0 | 0.00 | 0.00 | 0.00 | 28 | 1014.5 |
| 20260905021817 | 28 | 74 | 0.0 | 0.0 | 0.00 | 0.00 | 0.00 | 28 | 1014.3 |
| 20260905021311 | 28 | 74 | 0.0 | 0.0 | 0.00 | 0.00 | 0.00 | 28 | 1014.3 |
| 20260905020806 | 28 | 74 | 0.0 | 0.0 | 0.00 | 0.00 | 0.00 | 28 | 1014.1 |
| 20260905020300 | 28 | 74 | 0.0 | 0.0 | 0.00 | 0.00 | 0.00 | 27 | 1014.1 |
| 20260905015753 | 28 | 75 | 0.0 | 0.0 | 0.00 | 0.00 | 0.00 | 27 | 1014.1 |
| 20260905015246 | 29 | 69 | 0.0 | 0.0 | 0.00 | 0.00 | 0.00 | 27 | 1014.1 |
| 20260905014235 | 29 | 67 | 0.0 | 0.0 | 0.00 | 0.00 | 0.00 | 26 | 1014.0 |
| 20260905013730 | 30 | 67 | 0.0 | 0.0 | 0.00 | 0.00 | 0.00 | 26 | 1014.0 |
| 20260905013222 | 30 | 67 | 0.0 | 0.0 | 0.00 | 0.00 | 0.00 | 26 | 1013.9 |
| 20260905012717 | 30 | 65 | 0.0 | 0.0 | 0.00 | 0.00 | 0.00 | 26 | 1013.9 |
| 20260905011718 | 30 | 63 | 0.0 | 0.0 | 0.00 | 0.00 | 0.00 | 25 | 1013.9 |
| 20260905011217 | 31 | 44 | 0.0 | 0.0 | 0.00 | 0.00 | 0.00 | 25 | 1013.8 |
| 20260905010719 | 31 | 104 | 0.0 | 0.0 | 0.00 | 0.00 | 0.00 | 25 | 1013.8 |
| 20260905005209 | 31 | 258 | 0.0 | 0.0 | 0.00 | 0.00 | 0.00 | 26 | 1013.8 |
| 20260905004207 | 31 | 103 | 0.0 | 0.0 | 0.00 | 0.00 | 0.00 | 25 | 1013.8 |
| 20260905003707 | 32 | 104 | 0.0 | 0.0 | 0.00 | 0.00 | 0.00 | 24 | 1013.8 |
| 20260905003207 | 32 | 101 | 0.0 | 0.0 | 0.00 | 0.00 | 0.00 | 24 | 1013.9 |
| 20260905002707 | 32 | 26 | 0.0 | 3.2 | 0.00 | 0.00 | 0.00 | 25 | 1013.8 |
| 20260905002207 | 32 | 131 | 0.0 | 3.2 | 0.00 | 0.00 | 0.00 | 25 | 1013.8 |
| 20260905001708 | 32 | 132 | 0.0 | 3.2 | 0.00 | 0.00 | 0.00 | 24 | 1013.7 |
| 20260905001208 | 32 | 125 | 0.0 | 1.6 | 0.00 | 0.00 | 0.00 | 24 | 1013.7 |
| 20260905000707 | 32 | 292 | 0.0 | 0.0 | 0.00 | 0.00 | 0.00 | 24 | 1013.8 |
| 20260904235708 | 32 | 162 | 0.0 | 0.0 | 0.00 | 0.00 | 0.00 | 25 | 1013.6 |
| 20260904235201 | 32 | 239 | 0.0 | 0.0 | 0.00 | 0.00 | 0.00 | 25 | 1013.6 |
| 20260904234654 | 32 | 101 | 0.0 | 0.0 | 0.00 | 0.00 | 0.00 | 24 | 1013.6 |
| 20260904233644 | 32 | 62 | 0.0 | 8.0 | 0.00 | 0.00 | 0.00 | 24 | 1013.6 |
| 20260904233137 | 32 | 159 | 0.0 | 8.0 | 0.00 | 0.00 | 0.00 | 23 | 1013.4 |
| 20260904232631 | 33 | 249 | 0.0 | 0.0 | 0.00 | 0.00 | 0.00 | 22 | 1013.4 |
| 20260904232125 | 33 | 78 | 0.0 | 4.8 | 0.00 | 0.00 | 0.00 | 23 | 1013.3 |
| 20260904225048 | 33 | 132 | 0.0 | 0.0 | 0.00 | 0.00 | 0.00 | 23 | 1013.4 |
| 20260904224544 | 33 | 123 | 0.0 | 0.0 | 0.00 | 0.00 | 0.00 | 24 | 1013.4 |
| 20260904223532 | 33 | 207 | 0.0 | 9.7 | 0.00 | 0.00 | 0.00 | 24 | 1013.4 |
| 20260904223025 | 33 | 103 | 0.0 | 1.6 | 0.00 | 0.00 | 0.00 | 23 | 1013.3 |
| 20260904222518 | 33 | 196 | 0.0 | 0.0 | 0.00 | 0.00 | 0.00 | 23 | 1013.3 |
| 20260904222013 | 33 | 202 | 0.0 | 0.0 | 0.00 | 0.00 | 0.00 | 23 | 1013.4 |
| 20260904221004 | 33 | 136 | 0.0 | 0.0 | 0.00 | 0.00 | 0.00 | 21 | 1013.4 |
| 20260904220506 | 33 | 115 | 0.0 | 0.0 | 0.00 | 0.00 | 0.00 | 23 | 1013.4 |
| 20260904220005 | 33 | 57 | 0.0 | 0.0 | 0.00 | 0.00 | 0.00 | 22 | 1013.6 |
| 20260904215003 | 33 | 225 | 0.0 | 6.4 | 0.00 | 0.00 | 0.00 | 22 | 1013.6 |
| 20260904214502 | 33 | 61 | 0.0 | 6.4 | 0.00 | 0.00 | 0.00 | 25 | 1013.6 |
| 20260904213958 | 34 | 83 | 0.0 | 1.6 | 0.00 | 0.00 | 0.00 | 22 | 1013.7 |
| 20260904213500 | 33 | 88 | 0.0 | 0.0 | 0.00 | 0.00 | 0.00 | 24 | 1013.6 |
| 20260904212959 | 33 | 86 | 0.0 | 0.0 | 0.00 | 0.00 | 0.00 | 20 | 1013.7 |
| 20260904212457 | 33 | 208 | 0.0 | 0.0 | 0.00 | 0.00 | 0.00 | 21 | 1013.8 |
| 20260904211957 | 33 | 208 | 0.0 | 0.0 | 0.00 | 0.00 | 0.00 | 22 | 1013.9 |
| 20260904211457 | 33 | 209 | 0.0 | 0.0 | 0.00 | 0.00 | 0.00 | 26 | 1013.8 |
| 20260904210957 | 33 | 209 | 0.0 | 0.0 | 0.00 | 0.00 | 0.00 | 24 | 1014.0 |
| 20260904205955 | 33 | 209 | 0.0 | 0.0 | 0.00 | 0.00 | 0.00 | 28 | 1014.1 |
| 20260904205455 | 33 | 209 | 0.0 | 0.0 | 0.00 | 0.00 | 0.00 | 18 | 1014.3 |
| 20260904204954 | 33 | 209 | 0.0 | 0.0 | 0.00 | 0.00 | 0.00 | 25 | 1014.4 |
| 20260904204453 | 33 | 123 | 0.0 | 4.8 | 0.00 | 0.00 | 0.00 | 22 | 1014.5 |
| 20260904203957 | 32 | 173 | 0.0 | 4.8 | 0.00 | 0.00 | 0.00 | 24 | 1014.5 |
| 20260904202438 | 33 | 147 | 0.0 | 0.0 | 0.00 | 0.00 | 0.00 | 23 | 1014.7 |
| 20260904201425 | 32 | 146 | 0.0 | 6.4 | 0.00 | 0.00 | 0.00 | 26 | 1015.0 |
| 20260904200922 | 31 | 28 | 0.0 | 3.2 | 0.00 | 0.00 | 0.00 | 24 | 1015.0 |
| 20260904200410 | 31 | 68 | 0.0 | 0.0 | 0.00 | 0.00 | 0.00 | 27 | 1015.1 |
| 20260904195906 | 31 | 65 | 0.0 | 0.0 | 0.00 | 0.00 | 0.00 | 26 | 1015.1 |
| 20260904194910 | 32 | 136 | 0.0 | 0.0 | 0.00 | 0.00 | 0.00 | 26 | 1015.2 |
| 20260904193906 | 31 | 128 | 1.6 | 11.3 | 0.00 | 0.00 | 0.00 | 26 | 1015.3 |
| 20260904193407 | 31 | 84 | 0.0 | 11.3 | 0.00 | 0.00 | 0.00 | 24 | 1015.3 |
| 20260904192906 | 31 | 199 | 0.0 | 1.6 | 0.00 | 0.00 | 0.00 | 26 | 1015.3 |
| 20260904192408 | 31 | 173 | 0.0 | 0.0 | 0.00 | 0.00 | 0.00 | 27 | 1015.4 |
| 20260904191907 | 31 | 145 | 0.0 | 0.0 | 0.00 | 0.00 | 0.00 | 27 | 1015.5 |
| 20260904191407 | 31 | 113 | 0.0 | 0.0 | 0.00 | 0.00 | 0.00 | 27 | 1015.4 |
| 20260904190902 | 31 | 113 | 0.0 | 0.0 | 0.00 | 0.00 | 0.00 | 26 | 1015.5 |
| 20260904190403 | 31 | 102 | 0.0 | 0.0 | 0.00 | 0.00 | 0.00 | 26 | 1015.5 |
| 20260904185402 | 30 | 98 | 0.0 | 0.0 | 0.00 | 0.00 | 0.00 | 24 | 1015.7 |
| 20260904184903 | 30 | 187 | 0.0 | 0.0 | 0.00 | 0.00 | 0.00 | 24 | 1015.8 |